Home > Weather > Nairobi > Past weeks

Flag for Kenya Weather for the Past 2 Weeks in Nairobi, Kenya

Now
75 °F

Partly sunny.


Feels Like: 78 °F
Forecast: 60 / 76 °F
Wind: 5 mph from Southeast

Location: Kenyatta Airport

Current Time: May 4, 2016 at 2:41:49 PM

Latest Report: May 4, 2016 at 2:00 PM


Visibility: N/A

Pressure: 30.15 "Hg (24.85 "Hg at 1680m altitude)

Humidity: 57%

Dew Point: 59 °F

Location of NairobiLocation

Historic Weather in Nairobi — Graph

°F

Nairobi Temperature Yesterday

Maximum temperature yesterday: 77 °F (at 3:00 PM)
Minimum temperature yesterday: 59 °F (at 6:00 AM)
Average temperature yesterday: 68 °F

High & Low Weather Summary for the Past Weeks

 TemperatureHumidityPressure
High82 °F (Apr 22, 3:00 PM)100% (Apr 20, 5:00 AM)30.27 "Hg (Apr 20, 5:00 AM)
Low59 °F (May 3, 6:00 AM)42% (Apr 19, 6:00 PM)30.01 "Hg (Apr 27, 4:00 PM)
Average68 °F83%30.14 "Hg
* Reported Apr 19 1:00 PM — May 4 1:00 PM, Nairobi, Weather by CustomWeather, © 2016

Note: Actual official high and low records may vary slightly from our data, if they occured in-between our weather recording intervals... More about our weather records

Advertising

Nairobi Weather History for the Previous 24 Hours

Scroll right to see more
 ConditionsComfort  
Time TempWeatherWind HumidityBarometerVisibility
1:00 PM
Wed, May 4
75 °FPartly sunny.6 mph61%30.12 "HgN/A
12:00 PM73 °FPartly sunny.3 mph61%30.21 "HgN/A
11:00 AM72 °FPartly sunny.5 mph69%30.24 "HgN/A
10:00 AM70 °FPartly sunny.5 mph73%30.24 "HgN/A
9:00 AM66 °FPartly sunny.5 mph88%30.24 "HgN/A
8:00 AM64 °FPartly sunny.6 mph94%30.21 "HgN/A
7:00 AM64 °FBroken clouds.3 mph94%30.21 "HgN/A
6:00 AM61 °FPartly cloudy.3 mph94%30.18 "HgN/A
5:00 AM61 °FPassing clouds.6 mph94%30.15 "HgN/A
4:00 AM61 °FPassing clouds.7 mph94%30.15 "HgN/A
3:00 AM63 °FPassing clouds.7 mph94%30.15 "HgN/A
2:00 AM63 °FPassing clouds.5 mph88%30.18 "HgN/A
1:00 AM64 °FPassing clouds.6 mph83%30.18 "HgN/A
12:00 AM64 °FPassing clouds.6 mph83%30.18 "HgN/A
11:00 PM
Tue, May 3
66 °FPassing clouds.7 mph83%30.21 "HgN/A
10:00 PM64 °FClear.6 mph88%30.18 "Hg10 mi
9:00 PM68 °FPassing clouds.8 mph78%30.18 "HgN/A
8:00 PM68 °FPassing clouds.10 mph78%30.15 "HgN/A
7:00 PM72 °FPassing clouds.12 mph69%30.12 "HgN/A
6:00 PM73 °FScattered clouds.12 mph65%30.12 "HgN/A
5:00 PM75 °FScattered clouds.12 mph57%30.12 "HgN/A
4:00 PM77 °FPartly sunny.12 mph54%30.12 "HgN/A
3:00 PM77 °FPartly sunny.12 mph57%30.12 "HgN/A
Weather by CustomWeather, © 2016

See weather overviewHow to use our weather pages